Powrót do katalogu

JILIN-1 GAOFEN 06A 25 XING

AktywnyNaukaSSO
NORAD 57036·PAYLOAD·🇨🇳 China
Ta nazwa satelity nie została jeszcze potwierdzona przez oficjalne źródła.

Wystrzelony Jun 15, 2023 z Taiyuan Satellite Launch Center

Loading…

Następne Przeloty (najbliższe 24 godziny)

TLE

ŚwieżeSource: Space-Track

Epoka: Sep 14, 2026, 13:26 UTC

1 57036U 23085AJ  26257.55979734  .00005244  00000-0  25371-3 0  9996
2 57036  97.4916   2.2261 0007874 123.7550 236.4436 15.18999664179880

Śledź JILIN-1 GAOFEN 06A 25 XING w czasie rzeczywistym z AllMySat

Download on the App Store